UoSAT-OSCAR-14

operational
NORAD ID: 20437 Int'l Des: 1990-005 Owner: SSTL Country: UK
LEOCIRCULARRETROGRADESSO

UoSAT-OSCAR-14について

説明を読み込み中...

リアルタイム位置

3D地球を読み込み中...

次回通過

高度履歴

Altitude vs Time

uPlot chart will show altitude changes over time

軌道要素

1 20437U 90005B 26063.13259072 .00000148 00000-0 70501-4 0 9996
2 20437 98.8181 110.5778 0009948 207.0357 174.4322 14.33238060886540
Epoch: Mar 4, 2026 • Age: 22 hours

現在のステータス

高度 783.0 km
速度 7.46 km/s
衛星直下点 -24.67°S, 147.66°E
打ち上げ日 Jan 22, 1990
運用期間 36.1 years
タイプ other

技術仕様

分類 Payload
質量 46.00 kg
乾燥質量 46.00 kg
総質量 46.00 kg
長さ 0.70 m
直径 0.40 m
スパン 6.50 m
形状 Box + Ant
製造者 SSTL
バスタイプ UoSAT
フェーズステータス In Orbit
所有者/国 SSTL/UK

大規模コンステレーション

Loading constellations...